GW4872 Weather Reports


time (UTC)temp
C
wind
direction
speed
KPH
gust
KPH
rain 1hr
cm
rain 24hr
cm
rain mn
cm
humidity
%
barometer
mb
20260507124947 8 161 0.0 4.8 0.00 0.00 0.00 74 1012.7
20260507124443 8 174 0.0 3.2 0.00 0.00 0.00 75 1013.1
20260507123941 8 180 0.0 0.0 0.00 0.00 0.00 76 1013.0
20260507123438 8 168 0.0 1.6 0.00 0.00 0.00 76 1012.8
20260507122935 8 169 0.0 3.2 0.00 0.00 0.00 76 1012.7
20260507122430 8 169 0.0 4.8 0.00 0.00 0.00 77 1013.2
20260507121926 8 191 0.0 0.0 0.00 0.00 0.00 77 1013.0
20260507121422 7 151 0.0 3.2 0.00 0.00 0.00 77 1013.0
20260507120919 7 151 0.0 4.8 0.00 0.00 0.00 78 1013.0
20260507120415 7 173 0.0 0.0 0.00 0.00 0.00 78 1012.9
20260507115911 7 197 1.6 3.2 0.00 0.00 0.00 78 1013.0
20260507115407 7 202 1.6 3.2 0.00 0.00 0.00 78 1012.9
20260507114903 7 166 0.0 0.0 0.00 0.00 0.00 78 1012.8
20260507114400 7 165 0.0 0.0 0.00 0.00 0.00 79 1012.9
20260507113857 7 169 0.0 1.6 0.00 0.00 0.00 79 1013.0
20260507113354 7 167 0.0 0.0 0.00 0.00 0.00 79 1012.9
20260507112851 7 165 0.0 0.0 0.00 0.00 0.00 79 1012.8
20260507112349 7 163 1.6 3.2 0.00 0.00 0.00 79 1012.8
20260507111847 7 162 0.0 0.0 0.00 0.00 0.00 78 1013.0
20260507111343 7 151 0.0 1.6 0.00 0.00 0.00 78 1013.1
20260507110839 7 165 0.0 1.6 0.00 0.00 0.00 78 1013.0
20260507110335 7 167 0.0 0.0 0.00 0.00 0.00 78 1013.0
20260507105833 7 189 1.6 4.8 0.00 0.00 0.00 79 1013.1
20260507105329 7 159 0.0 0.0 0.00 0.00 0.00 79 1012.9
20260507104826 7 172 0.0 0.0 0.00 0.00 0.00 79 1012.9
20260507104322 7 175 0.0 0.0 0.00 0.00 0.00 79 1012.8
20260507103818 7 175 0.0 0.0 0.00 0.00 0.00 78 1012.9
20260507103315 7 168 0.0 1.6 0.00 0.00 0.00 78 1012.7
20260507102811 7 167 0.0 0.0 0.00 0.00 0.00 77 1012.7
20260507102309 7 163 0.0 0.0 0.00 0.00 0.00 77 1012.8
20260507101805 7 179 0.0 1.6 0.00 0.00 0.00 78 1012.9
20260507101304 7 162 0.0 0.0 0.00 0.00 0.00 77 1013.1
20260507100802 7 163 0.0 0.0 0.00 0.00 0.00 77 1012.8
20260507100300 7 166 0.0 0.0 0.00 0.00 0.00 78 1012.8
20260507095758 7 165 0.0 0.0 0.00 0.00 0.00 78 1013.0
20260507095254 6 170 0.0 0.0 0.00 0.00 0.00 78 1012.9
20260507094751 6 160 0.0 0.0 0.00 0.00 0.00 78 1012.9
20260507094248 6 167 0.0 0.0 0.00 0.00 0.00 77 1013.0
20260507093745 6 167 0.0 0.0 0.00 0.00 0.00 76 1013.2
20260507093243 7 163 0.0 0.0 0.00 0.00 0.00 76 1013.2
20260507092741 7 169 0.0 0.0 0.00 0.00 0.00 75 1013.2
20260507092236 7 165 0.0 0.0 0.00 0.00 0.00 74 1013.2
20260507091733 7 165 0.0 0.0 0.00 0.00 0.00 73 1013.0
20260507091230 7 157 0.0 1.6 0.00 0.00 0.00 73 1013.4
20260507090725 8 132 0.0 0.0 0.00 0.00 0.00 72 1013.4
20260507090222 7 173 0.0 4.8 0.00 0.00 0.00 72 1013.5
20260507085719 8 157 0.0 0.0 0.00 0.00 0.00 72 1013.4
20260507085216 8 170 0.0 0.0 0.00 0.00 0.00 71 1013.6
20260507084713 8 174 0.0 0.0 0.00 0.00 0.00 70 1013.5
20260507084209 8 177 0.0 1.6 0.00 0.00 0.00 71 1013.7
20260507083707 7 171 0.0 1.6 0.00 0.00 0.00 71 1013.8
20260507083203 7 169 0.0 0.0 0.00 0.00 0.00 71 1013.6
20260507082659 7 160 0.0 1.6 0.00 0.00 0.00 71 1013.8
20260507082155 7 168 0.0 0.0 0.00 0.00 0.00 71 1013.9
20260507081652 7 150 0.0 0.0 0.00 0.00 0.00 70 1013.9
20260507081143 6 169 0.0 0.0 0.00 0.00 0.00 70 1014.2
20260507080639 6 158 0.0 0.0 0.00 0.00 0.00 71 1014.1
20260507080136 6 165 0.0 0.0 0.00 0.00 0.00 71 1014.3
20260507075636 6 168 0.0 0.0 0.00 0.00 0.00 70 1014.3
20260507075133 5 171 0.0 0.0 0.00 0.00 0.00 70 1014.3
20260507074630 5 167 0.0 0.0 0.00 0.00 0.00 70 1014.4
20260507074128 5 169 0.0 0.0 0.00 0.00 0.00 70 1014.6
20260507073624 5 167 0.0 0.0 0.00 0.00 0.00 69 1014.5
20260507073120 5 168 0.0 0.0 0.00 0.00 0.00 69 1014.6
20260507072618 5 167 0.0 0.0 0.00 0.00 0.00 68 1014.4
20260507072115 5 171 0.0 0.0 0.00 0.00 0.00 68 1015.0
20260507071612 5 165 0.0 0.0 0.00 0.00 0.00 67 1014.7
20260507071109 5 166 0.0 0.0 0.00 0.00 0.00 66 1014.9
20260507070606 6 165 0.0 0.0 0.00 0.00 0.00 66 1014.9
20260507065559 5 168 0.0 0.0 0.00 0.00 0.00 66 1014.9
20260507065057 6 165 0.0 0.0 0.00 0.00 0.00 64 1015.2
20260507064554 6 166 0.0 0.0 0.00 0.00 0.00 62 1015.1
20260507064053 6 165 0.0 0.0 0.00 0.00 0.00 61 1015.2
20260507063550 6 165 0.0 0.0 0.00 0.00 0.00 60 1015.3
20260507063047 6 165 0.0 0.0 0.00 0.00 0.00 60 1015.2
20260507062543 6 172 0.0 0.0 0.00 0.00 0.00 59 1015.4
20260507062041 7 165 0.0 0.0 0.00 0.00 0.00 59 1015.4
20260507061538 7 166 0.0 0.0 0.00 0.00 0.00 58 1015.2
20260507061036 7 168 0.0 0.0 0.00 0.00 0.00 58 1015.4
20260507060534 7 167 0.0 0.0 0.00 0.00 0.00 56 1015.3
20260507060031 7 171 0.0 0.0 0.00 0.00 0.00 56 1015.3
20260507055531 7 175 0.0 0.0 0.00 0.00 0.00 58 1015.3
20260507055028 7 168 0.0 0.0 0.00 0.00 0.00 58 1015.5
20260507054524 6 167 0.0 0.0 0.00 0.00 0.00 60 1015.6
20260507054021 6 165 0.0 0.0 0.00 0.00 0.00 63 1015.6
20260507053519 6 165 0.0 0.0 0.00 0.00 0.00 63 1015.6
20260507053018 6 165 0.0 0.0 0.00 0.00 0.00 64 1015.5
20260507052515 6 161 0.0 0.0 0.00 0.00 0.00 64 1015.4
20260507052011 6 161 0.0 0.0 0.00 0.00 0.00 64 1015.7
20260507051509 6 165 0.0 0.0 0.00 0.00 0.00 62 1015.7
20260507051006 6 167 0.0 0.0 0.00 0.00 0.00 62 1015.7
20260507050502 6 165 0.0 0.0 0.00 0.00 0.00 63 1015.6
20260507045959 6 168 0.0 0.0 0.00 0.00 0.00 64 1015.6
20260507045455 6 167 0.0 0.0 0.00 0.00 0.00 65 1015.5
20260507044953 5 165 0.0 0.0 0.00 0.00 0.00 65 1015.7
20260507044449 6 167 0.0 0.0 0.00 0.00 0.00 65 1015.7
20260507043945 6 165 0.0 0.0 0.00 0.00 0.00 64 1015.7
20260507043442 6 167 0.0 0.0 0.00 0.00 0.00 64 1015.7
20260507042938 6 165 0.0 0.0 0.00 0.00 0.00 64 1015.8
20260507042435 6 165 0.0 0.0 0.00 0.00 0.00 60 1015.7
20260507041931 6 165 0.0 0.0 0.00 0.00 0.00 59 1015.9
20260507041427 6 165 0.0 0.0 0.00 0.00 0.00 58 1015.8
20260507040925 6 165 0.0 0.0 0.00 0.00 0.00 58 1015.9
20260507040421 6 166 0.0 0.0 0.00 0.00 0.00 58 1015.9
20260507035916 7 166 0.0 0.0 0.00 0.00 0.00 56 1016.0
20260507035413 7 167 0.0 0.0 0.00 0.00 0.00 56 1016.1
20260507034910 7 165 0.0 0.0 0.00 0.00 0.00 56 1016.1
20260507034407 7 165 0.0 0.0 0.00 0.00 0.00 55 1016.1
20260507033905 7 165 0.0 0.0 0.00 0.00 0.00 53 1016.0
20260507033403 7 168 0.0 0.0 0.00 0.00 0.00 53 1016.3
20260507032859 7 165 0.0 0.0 0.00 0.00 0.00 53 1016.2
20260507032356 7 165 0.0 0.0 0.00 0.00 0.00 52 1016.2
20260507031852 7 167 0.0 0.0 0.00 0.00 0.00 52 1016.1
20260507031349 7 167 0.0 0.0 0.00 0.00 0.00 51 1016.3
20260507030846 8 166 0.0 0.0 0.00 0.00 0.00 50 1016.4
20260507030343 8 165 0.0 0.0 0.00 0.00 0.00 48 1016.1
20260507025840 9 166 0.0 0.0 0.00 0.00 0.00 47 1016.1
20260507025337 9 166 0.0 0.0 0.00 0.00 0.00 47 1016.4
20260507024835 9 167 0.0 0.0 0.00 0.00 0.00 46 1016.2
20260507024332 8 165 0.0 0.0 0.00 0.00 0.00 46 1016.2
20260507023828 8 167 0.0 0.0 0.00 0.00 0.00 47 1016.2
20260507023325 8 166 0.0 0.0 0.00 0.00 0.00 47 1016.0
20260507022822 9 165 0.0 0.0 0.00 0.00 0.00 45 1016.0
20260507022318 10 165 0.0 0.0 0.00 0.00 0.00 45 1016.1
20260507021814 10 165 0.0 0.0 0.00 0.00 0.00 44 1015.9
20260507021310 10 169 0.0 0.0 0.00 0.00 0.00 43 1015.9
20260507020808 10 166 0.0 0.0 0.00 0.00 0.00 44 1015.9
20260507020304 11 169 0.0 0.0 0.00 0.00 0.00 43 1015.7
20260507015802 10 171 0.0 0.0 0.00 0.00 0.00 42 1016.0
20260507015259 11 174 0.0 0.0 0.00 0.00 0.00 42 1015.9
20260507014756 11 165 0.0 0.0 0.00 0.00 0.00 41 1015.8
20260507014252 11 169 0.0 0.0 0.00 0.00 0.00 40 1015.9
20260507013749 11 172 0.0 0.0 0.00 0.00 0.00 40 1015.9
20260507013247 12 171 0.0 0.0 0.00 0.00 0.00 39 1015.9
20260507012744 12 165 0.0 0.0 0.00 0.00 0.00 39 1015.8
20260507012244 12 175 0.0 0.0 0.00 0.00 0.00 38 1015.7
20260507011742 13 171 0.0 0.0 0.00 0.00 0.00 36 1015.9
20260507011239 13 174 0.0 0.0 0.00 0.00 0.00 36 1015.8
20260507010738 13 168 0.0 0.0 0.00 0.00 0.00 34 1015.7
20260507010234 13 166 0.0 0.0 0.00 0.00 0.00 32 1015.8
20260507005732 13 179 0.0 3.2 0.00 0.00 0.00 33 1015.7
20260507005228 14 171 0.0 0.0 0.00 0.00 0.00 33 1015.7
20260507004725 14 172 0.0 0.0 0.00 0.00 0.00 32 1015.9
20260507004223 15 177 1.6 3.2 0.00 0.00 0.00 31 1015.8
20260507003719 15 185 0.0 3.2 0.00 0.00 0.00 31 1015.8
20260507003214 15 188 0.0 3.2 0.00 0.00 0.00 31 1015.9
20260507002710 15 129 0.0 1.6 0.00 0.00 0.00 30 1015.9
20260507002206 15 197 1.6 4.8 0.00 0.00 0.00 30 1015.8
20260507001703 15 213 0.0 0.0 0.00 0.00 0.00 30 1015.9
20260507001201 15 164 0.0 9.7 0.00 0.00 0.00 30 1016.0
20260507000657 15 210 3.2 4.8 0.00 0.00 0.00 30 1016.2
20260507000152 15 4 9.7 14.5 0.00 0.00 0.00 30 1016.0
20260506235650 15 133 4.8 14.5 0.00 0.00 0.00 30 1016.3
20260506235145 16 326 4.8 11.3 0.00 0.00 0.00 30 1016.2
20260506234642 16 177 4.8 11.3 0.00 0.00 0.00 30 1016.1
20260506234139 16 123 1.6 4.8 0.00 0.00 0.00 29 1016.3
20260506233636 15 178 3.2 3.2 0.00 0.00 0.00 30 1016.1
20260506233133 16 134 3.2 4.8 0.00 0.00 0.00 30 1016.4
20260506232629 16 90 12.9 14.5 0.00 0.00 0.00 29 1016.3
20260506232125 15 171 1.6 3.2 0.00 0.00 0.00 30 1016.2
20260506231622 15 62 6.4 14.5 0.00 0.00 0.00 31 1016.4
20260506231121 15 336 9.7 14.5 0.00 0.00 0.00 30 1016.5
20260506230617 16 11 9.7 12.9 0.00 0.00 0.00 29 1016.5
20260506230114 16 345 6.4 11.3 0.00 0.00 0.00 29 1016.5
20260506225610 16 296 6.4 12.9 0.00 0.00 0.00 29 1016.6
20260506225107 15 179 3.2 3.2 0.00 0.00 0.00 30 1016.6
20260506224604 16 205 6.4 16.1 0.00 0.00 0.00 30 1016.5
20260506224100 16 200 4.8 20.9 0.00 0.00 0.00 30 1016.7
20260506223556 15 359 8.0 9.7 0.00 0.00 0.00 29 1016.5
20260506223053 15 317 6.4 16.1 0.00 0.00 0.00 29 1016.8
20260506222550 15 177 1.6 9.7 0.00 0.00 0.00 30 1016.7
20260506222046 15 185 4.8 11.3 0.00 0.00 0.00 29 1016.8
20260506221544 15 195 4.8 22.5 0.00 0.00 0.00 30 1017.0
20260506221042 15 34 4.8 17.7 0.00 0.00 0.00 31 1016.8
20260506220537 15 90 4.8 12.9 0.00 0.00 0.00 31 1016.8
20260506220033 15 163 0.0 14.5 0.00 0.00 0.00 30 1017.0
20260506215530 15 154 6.4 9.7 0.00 0.00 0.00 30 1016.9
20260506215026 15 246 6.4 9.7 0.00 0.00 0.00 30 1016.9
20260506214523 15 223 6.4 12.9 0.00 0.00 0.00 30 1017.1
20260506214020 15 169 3.2 9.7 0.00 0.00 0.00 30 1016.9
20260506213518 15 2 11.3 16.1 0.00 0.00 0.00 29 1017.2
20260506213015 16 347 4.8 22.5 0.00 0.00 0.00 30 1017.4
20260506212512 15 270 17.7 20.9 0.00 0.00 0.00 31 1016.9
20260506212007 15 235 12.9 22.5 0.00 0.00 0.00 30 1017.2
20260506211502 15 159 4.8 11.3 0.00 0.00 0.00 30 1017.5
20260506211000 16 225 4.8 11.3 0.00 0.00 0.00 30 1017.4
20260506210456 15 204 4.8 11.3 0.00 0.00 0.00 32 1017.6
20260506205953 14 157 1.6 6.4 0.00 0.00 0.00 31 1017.7
20260506205449 14 27 16.1 20.9 0.00 0.00 0.00 32 1017.6
20260506204945 14 7 4.8 9.7 0.00 0.00 0.00 32 1017.7
20260506204444 15 173 4.8 9.7 0.00 0.00 0.00 31 1017.8
20260506203941 14 153 4.8 11.3 0.00 0.00 0.00 32 1017.8
20260506203438 15 222 6.4 12.9 0.00 0.00 0.00 31 1018.0
20260506202935 14 102 11.3 14.5 0.00 0.00 0.00 32 1018.0
20260506202432 14 225 6.4 12.9 0.00 0.00 0.00 32 1018.4
20260506201928 13 167 4.8 11.3 0.00 0.00 0.00 33 1018.1
20260506201426 13 47 8.0 11.3 0.00 0.00 0.00 32 1018.2
20260506200922 14 239 12.9 16.1 0.00 0.00 0.00 31 1018.1
20260506200419 14 269 9.7 12.9 0.00 0.00 0.00 31 1018.3
20260506195915 13 0 8.0 22.5 0.00 0.00 0.00 33 1018.4
20260506195412 14 300 6.4 17.7 0.00 0.00 0.00 32 1018.4
20260506194909 15 152 6.4 16.1 0.00 0.00 0.00 32 1018.4
20260506194406 15 31 6.4 12.9 0.00 0.00 0.00 32 1018.3
20260506193903 15 192 1.6 12.9 0.00 0.00 0.00 31 1018.5
20260506193400 13 349 3.2 12.9 0.00 0.00 0.00 33 1018.4
20260506192856 13 174 4.8 14.5 0.00 0.00 0.00 34 1018.5
20260506192353 14 158 6.4 24.1 0.00 0.00 0.00 32 1018.6
20260506191850 14 354 19.3 27.4 0.00 0.00 0.00 32 1018.4
20260506191346 14 16 11.3 17.7 0.00 0.00 0.00 34 1018.5
20260506190843 14 219 9.7 16.1 0.00 0.00 0.00 32 1018.4
20260506190340 14 47 6.4 11.3 0.00 0.00 0.00 32 1018.4
20260506185837 13 167 0.0 12.9 0.00 0.00 0.00 33 1018.4
20260506185334 13 205 4.8 9.7 0.00 0.00 0.00 33 1018.6
20260506184831 13 224 6.4 12.9 0.00 0.00 0.00 34 1018.7
20260506184328 13 158 1.6 9.7 0.00 0.00 0.00 33 1018.7
20260506183826 14 170 3.2 12.9 0.00 0.00 0.00 33 1018.9
20260506183320 14 199 6.4 17.7 0.00 0.00 0.00 33 1019.1
20260506182818 13 181 11.3 17.7 0.00 0.00 0.00 34 1018.9
20260506182315 13 241 9.7 12.9 0.00 0.00 0.00 33 1019.0
20260506181813 13 189 4.8 9.7 0.00 0.00 0.00 33 1019.0
20260506181310 13 312 6.4 12.9 0.00 0.00 0.00 35 1019.0
20260506180807 13 276 9.7 17.7 0.00 0.00 0.00 35 1019.1
20260506180303 13 310 9.7 11.3 0.00 0.00 0.00 36 1019.1
20260506175759 13 180 4.8 9.7 0.00 0.00 0.00 35 1019.1
20260506175256 13 52 6.4 12.9 0.00 0.00 0.00 34 1019.4
20260506174754 12 337 8.0 11.3 0.00 0.00 0.00 37 1019.2
20260506174251 13 106 0.0 4.8 0.00 0.00 0.00 35 1019.4
20260506173749 12 283 12.9 16.1 0.00 0.00 0.00 36 1019.6
20260506173245 12 192 3.2 9.7 0.00 0.00 0.00 37 1019.7
20260506172742 12 209 6.4 11.3 0.00 0.00 0.00 37 1019.5
20260506172238 12 179 8.0 11.3 0.00 0.00 0.00 37 1019.7
20260506171736 12 20 6.4 12.9 0.00 0.00 0.00 37 1019.7
20260506171233 12 291 9.7 16.1 0.00 0.00 0.00 37 1019.7
20260506170731 12 353 11.3 17.7 0.00 0.00 0.00 35 1019.6
20260506170227 12 143 6.4 12.9 0.00 0.00 0.00 35 1019.7
20260506165726 12 354 4.8 14.5 0.00 0.00 0.00 35 1019.7
20260506165222 12 208 6.4 12.9 0.00 0.00 0.00 36 1019.7
20260506164720 12 137 1.6 6.4 0.00 0.00 0.00 37 1019.9
20260506164217 11 179 1.6 12.9 0.00 0.00 0.00 37 1019.8
20260506163713 11 36 11.3 22.5 0.00 0.00 0.00 38 1019.8
20260506163208 12 336 11.3 14.5 0.00 0.00 0.00 37 1019.8
20260506162704 12 234 3.2 22.5 0.00 0.00 0.00 38 1020.0
20260506162202 12 153 1.6 11.3 0.00 0.00 0.00 38 1019.9
20260506161659 11 173 1.6 3.2 0.00 0.00 0.00 39 1019.7
20260506161155 11 147 1.6 6.4 0.00 0.00 0.00 39 1019.9
20260506160654 11 144 4.8 4.8 0.00 0.00 0.00 40 1019.7
20260506160150 11 27 9.7 12.9 0.00 0.00 0.00 41 1019.8
20260506155649 11 20 8.0 14.5 0.00 0.00 0.00 40 1020.0
20260506155145 10 28 8.0 12.9 0.00 0.00 0.00 42 1020.0
20260506153247 10 181 3.2 11.3 0.00 0.00 0.00 41 1020.0
20260506152744 10 305 6.4 6.4 0.00 0.00 0.00 41 1019.8
20260506152242 10 126 3.2 11.3 0.00 0.00 0.00 44 1019.8
20260506151741 10 159 4.8 11.3 0.00 0.00 0.00 41 1019.8
20260506151237 10 52 4.8 14.5 0.00 0.00 0.00 41 1020.0
20260506150733 10 185 0.0 6.4 0.00 0.00 0.00 43 1019.6
20260506150231 10 113 0.0 9.7 0.00 0.00 0.00 43 1019.9
20260506145728 10 78 3.2 11.3 0.00 0.00 0.00 42 1020.0
20260506145224 10 5 6.4 16.1 0.00 0.00 0.00 44 1019.9
20260506144722 9 208 9.7 11.3 0.00 0.00 0.00 43 1019.9
20260506144219 10 142 1.6 12.9 0.00 0.00 0.00 44 1019.9
20260506143716 10 160 1.6 4.8 0.00 0.00 0.00 44 1019.9
20260506143214 10 152 1.6 9.7 0.00 0.00 0.00 44 1020.0
20260506142712 9 142 0.0 0.0 0.00 0.00 0.00 46 1019.8
20260506142209 9 198 6.4 9.7 0.00 0.00 0.00 45 1019.8
20260506141707 9 125 0.0 3.2 0.00 0.00 0.00 47 1019.8
20260506141205 9 197 4.8 9.7 0.00 0.00 0.00 46 1019.7
20260506140703 8 103 1.6 3.2 0.00 0.00 0.00 49 1019.8
20260506140159 8 165 0.0 3.2 0.00 0.00 0.00 48 1019.6
20260506135656 8 94 1.6 4.8 0.00 0.00 0.00 48 1019.5
20260506135152 8 66 3.2 4.8 0.00 0.00 0.00 48 1019.4
20260506134649 7 124 3.2 6.4 0.00 0.00 0.00 49 1019.6
20260506134145 7 97 3.2 4.8 0.00 0.00 0.00 50 1019.3
20260506133643 7 120 1.6 6.4 0.00 0.00 0.00 51 1019.4
20260506133139 7 159 4.8 6.4 0.00 0.00 0.00 53 1019.6
20260506132637 7 73 4.8 6.4 0.00 0.00 0.00 55 1019.6
20260506132133 6 91 3.2 4.8 0.00 0.00 0.00 55 1019.2
20260506131631 6 184 4.8 6.4 0.00 0.00 0.00 56 1019.3
20260506131127 6 160 0.0 4.8 0.00 0.00 0.00 57 1019.3
20260506130624 6 100 3.2 4.8 0.00 0.00 0.00 58 1019.3
20260506130122 5 73 4.8 9.7 0.00 0.00 0.00 58 1019.2
20260506125620 5 5 4.8 6.4 0.00 0.00 0.00 60 1019.1